(95822) = 1999 KZ8 = 2003 FM82

Discovered at Palomar on 2003-03-27 by NEAT.

Orbit

Orbit type: Main Belt

Note: WebGL enabled browser required.

epoch2023-02-25.0
epoch JD2460000.5
perihelion date2020-07-17.88641
perihelion JD2459048.38641
argument of perihelion (°)189.36801
ascending node (°)103.08118
inclination (°)6.00161
eccentricity0.1846471
perihelion distance (AU)2.0950701
Tisserand w.r.t. Jupiter3.4
ΔV w.r.t. Earth (km/sec)9.3
semimajor axis (AU)2.5695256
mean anomaly (°)227.83120
mean daily motion (°/day)0.23928990
aphelion distance (AU)3.044
period (years)4.12
P-vector [x]0.38099494
P-vector [y]-0.84136936
P-vector [z]-0.38332813
Q-vector [x]0.91895094
Q-vector [y]0.39026581
Q-vector [z]0.05676066
absolute magnitude16.26
phase slope0.15
uncertainty0
referenceMPEC 2023-F72
observations used457
oppositions15
arc length (days)8706
first opposition used1999
last opposition used2023
residual rms (arc-secs)0.73
perturbers coarse indicatorM-v
perturbers precise indicator003Ek
first observation date used1999-05-18.0
last observation date used2023-03-19.0
computer nameMPCLINUX
Minimum Orbit Intersection Distances (in AU)
for orbit epoch: 2460000.5, reference: E2023-F72
Mercury1.64502
Venus1.36729
Earth1.07828
Mars0.66697
Jupiter2.13477
Saturn6.03975
Uranus15.5449
Neptune27.0781

Observations

475 total observations over interval: 1999 05 18.15657 – 2023 03 19.191354
These data are available for download (format description).

Date (UT) J2000 RA J2000 Dec Magn Location Ref
1999 05 18.15657 14 18 52.90 -04 29 52.8 19.3   704 – Lincoln Laboratory ETS, New Mexico MPS 5237
1999 05 18.17047 14 18 52.07 -04 29 52.7 19.7   704 – Lincoln Laboratory ETS, New Mexico MPS 5237
1999 05 18.18437 14 18 51.40 -04 29 52.6 19.7   704 – Lincoln Laboratory ETS, New Mexico MPS 5237
1999 05 18.19828 14 18 50.68 -04 29 50.9 19.5   704 – Lincoln Laboratory ETS, New Mexico MPS 5237
1999 05 18.21579 14 18 50.04 -04 29 49.6 19.1 R 703 – Catalina Sky Survey MPS 5623
1999 05 18.22883 14 18 49.33 -04 29 49.1 19.2 R 703 – Catalina Sky Survey MPS 5623
1999 05 18.24185 14 18 48.68 -04 29 47.1 19.2 R 703 – Catalina Sky Survey MPS 5623
1999 05 18.25497 14 18 48.00 -04 29 45.8 20.1 R 703 – Catalina Sky Survey MPS 5623
1999 05 19.17468 14 18 04.99 -04 28 58.7 19.4   704 – Lincoln Laboratory ETS, New Mexico MPS 5237
1999 05 19.18862 14 18 04.14 -04 28 58.6 19.2   704 – Lincoln Laboratory ETS, New Mexico MPS 5237
1999 05 19.20256 14 18 03.49 -04 28 58.4 19.2   704 – Lincoln Laboratory ETS, New Mexico MPS 5237
1999 05 19.21646 14 18 02.84 -04 28 58.3 19.4   704 – Lincoln Laboratory ETS, New Mexico MPS 5237
2000 10 02.36190 02 15 17.76 +03 29 59.1 19.6   704 – Lincoln Laboratory ETS, New Mexico MPS 81566
2000 10 02.39107 02 15 16.41 +03 29 49.0 19.9   704 – Lincoln Laboratory ETS, New Mexico MPS 81566
2000 10 02.40554 02 15 15.80 +03 29 44.9 19.5   704 – Lincoln Laboratory ETS, New Mexico MPS 81566
2003 03 27.40584 13 47 28.89 -00 42 37.7 19.9   644 – Palomar Mountain/NEAT MPS 76397
2003 03 27.41635 13 47 28.44 -00 42 34.3 20.0   644 – Palomar Mountain/NEAT MPS 76397
2003 03 27.42673 13 47 28.04 -00 42 30.2 20.7   644 – Palomar Mountain/NEAT MPS 76397
2003 03 31.32445 13 44 39.66 -00 19 40.6 19.1 R 699 – Lowell Observatory-LONEOS MPS 76397
2003 03 31.34429 13 44 38.71 -00 19 34.4   699 – Lowell Observatory-LONEOS MPS 76397
2003 03 31.38152 13 44 37.00 -00 19 20.4   699 – Lowell Observatory-LONEOS MPS 76397
2003 03 31.40141 13 44 35.98 -00 19 13.9   699 – Lowell Observatory-LONEOS MPS 76397
2003 04 01.32831 13 43 53.62 -00 13 48.3 19.6   704 – Lincoln Laboratory ETS, New Mexico MPS 76397
2003 04 01.34098 13 43 52.99 -00 13 41.1 19.2   704 – Lincoln Laboratory ETS, New Mexico MPS 76397
2003 04 01.35312 13 43 52.42 -00 13 36.8 18.8   704 – Lincoln Laboratory ETS, New Mexico MPS 76397
2003 04 08.33383 13 38 07.34 +00 26 50.6 19.5   704 – Lincoln Laboratory ETS, New Mexico MPS 76397
2003 04 08.34581 13 38 06.77 +00 26 54.3 19.5   704 – Lincoln Laboratory ETS, New Mexico MPS 76397
2003 04 08.35767 13 38 06.04 +00 26 59.3 19.5   704 – Lincoln Laboratory ETS, New Mexico MPS 76397
2003 04 08.37001 13 38 05.30 +00 27 02.7 19.3   704 – Lincoln Laboratory ETS, New Mexico MPS 76397
2003 04 09.29272 13 37 17.42 +00 32 14.3 19.6   704 – Lincoln Laboratory ETS, New Mexico MPS 76397
2003 04 09.29296 13 37 17.46 +00 32 14.3 18.9   644 – Palomar Mountain/NEAT MPS 76397
2003 04 09.30623 13 37 16.72 +00 32 16.5 20.0   704 – Lincoln Laboratory ETS, New Mexico MPS 76397
2003 04 09.32922 13 37 15.39 +00 32 26.5 19.8   704 – Lincoln Laboratory ETS, New Mexico MPS 76397
2003 04 09.34101 13 37 14.74 +00 32 29.1 19.6   704 – Lincoln Laboratory ETS, New Mexico MPS 76397
2003 04 09.37254 13 37 13.12 +00 32 40.9 19.0   644 – Palomar Mountain/NEAT MPS 76397
2003 04 09.44155 13 37 09.35 +00 33 04.0 19.0   644 – Palomar Mountain/NEAT MPS 76397
2003 04 10.30757 13 36 23.93 +00 37 49.6 19.1   704 – Lincoln Laboratory ETS, New Mexico MPS 76397
2003 04 10.31946 13 36 23.24 +00 37 55.2 18.6   704 – Lincoln Laboratory ETS, New Mexico MPS 76397
2003 04 10.33107 13 36 22.63 +00 37 58.6 19.2   704 – Lincoln Laboratory ETS, New Mexico MPS 76397
2003 04 10.34270 13 36 21.98 +00 38 03.3 19.0   704 – Lincoln Laboratory ETS, New Mexico MPS 76397
2003 04 28.17355 13 20 33.29 +01 58 08.1 19.7 V 691 – Steward Observatory, Kitt Peak-Spacewatch MPS 78386
2003 04 28.20029 13 20 31.90 +01 58 13.5 19.7 V 691 – Steward Observatory, Kitt Peak-Spacewatch MPS 78386
2003 04 28.22742 13 20 30.51 +01 58 18.5 20.5 V 691 – Steward Observatory, Kitt Peak-Spacewatch MPS 78386
2003 05 02.27190 13 17 15.09 +02 09 29.2 19.4   704 – Lincoln Laboratory ETS, New Mexico MPS 78386
2003 05 02.28358 13 17 14.48 +02 09 30.7 19.4   704 – Lincoln Laboratory ETS, New Mexico MPS 78386
2003 05 02.29540 13 17 13.95 +02 09 32.3 19.6   704 – Lincoln Laboratory ETS, New Mexico MPS 78386
2003 05 02.30721 13 17 13.35 +02 09 34.6 19.6   704 – Lincoln Laboratory ETS, New Mexico MPS 78386
2004 08 15.73874 01 29 22.61 +00 20 49.1 19.1 R E12 – Siding Spring Survey MPS 111862
2004 08 15.75159 01 29 22.64 +00 20 47.5 19.6 R E12 – Siding Spring Survey MPS 111862
2004 08 15.76444 01 29 22.82 +00 20 45.8 20.1 R E12 – Siding Spring Survey MPS 111862
2004 08 15.77727 01 29 22.97 +00 20 44.5 20.0 R E12 – Siding Spring Survey MPS 111862
2004 08 19.70684 01 29 59.54 +00 09 18.7 19.6 R E12 – Siding Spring Survey MPS 111862
2004 08 19.72370 01 29 59.63 +00 09 14.8 19.6 R E12 – Siding Spring Survey MPS 111862
2004 08 19.74056 01 29 59.69 +00 09 11.5 20.4 R E12 – Siding Spring Survey MPS 111862
2004 08 19.75740 01 29 59.73 +00 09 08.5 19.8 R E12 – Siding Spring Survey MPS 111862
2004 09 08.30638 01 26 17.67 -01 20 30.2 19.7   704 – Lincoln Laboratory ETS, New Mexico MPS 112705
2004 09 08.31816 01 26 17.33 -01 20 33.6 19.7   704 – Lincoln Laboratory ETS, New Mexico MPS 112705
2004 09 08.33018 01 26 16.96 -01 20 38.5 19.4   704 – Lincoln Laboratory ETS, New Mexico MPS 112705
2004 09 08.34183 01 26 16.63 -01 20 42.1 19.6   704 – Lincoln Laboratory ETS, New Mexico MPS 112705
2004 09 14.33764 01 22 59.80 -01 56 16.1 18.8 R 699 – Lowell Observatory-LONEOS MPS 121063
2004 09 14.35386 01 22 59.18 -01 56 21.4   699 – Lowell Observatory-LONEOS MPS 121063
2004 09 14.37010 01 22 58.55 -01 56 27.7   699 – Lowell Observatory-LONEOS MPS 121063
2004 09 14.38636 01 22 57.92 -01 56 33.4   699 – Lowell Observatory-LONEOS MPS 121063
2004 10 07.28312 01 04 26.88 -04 12 03.6 19.0   704 – Lincoln Laboratory ETS, New Mexico MPS 115731
2004 10 07.29381 01 04 26.34 -04 12 07.2 19.1   704 – Lincoln Laboratory ETS, New Mexico MPS 115731
2004 10 07.30451 01 04 25.68 -04 12 09.8 18.9   704 – Lincoln Laboratory ETS, New Mexico MPS 115731
2004 10 07.31520 01 04 25.12 -04 12 14.0 19.1   704 – Lincoln Laboratory ETS, New Mexico MPS 115731
2004 10 07.32587 01 04 24.51 -04 12 16.2 19.0   704 – Lincoln Laboratory ETS, New Mexico MPS 115731
2004 10 09.20297 01 02 43.18 -04 21 28.6 18.9   704 – Lincoln Laboratory ETS, New Mexico MPS 116611
2004 10 09.21393 01 02 42.55 -04 21 31.9 19.3   704 – Lincoln Laboratory ETS, New Mexico MPS 116611
2004 10 09.22493 01 02 41.90 -04 21 34.2 19.4   704 – Lincoln Laboratory ETS, New Mexico MPS 116611
2004 10 09.23589 01 02 41.30 -04 21 37.6 19.7   704 – Lincoln Laboratory ETS, New Mexico MPS 116611
2004 10 09.24706 01 02 40.69 -04 21 41.8 19.4   704 – Lincoln Laboratory ETS, New Mexico MPS 116611
2004 10 18.20353 00 54 52.81 -04 57 46.9 19.3   704 – Lincoln Laboratory ETS, New Mexico MPS 117603
2004 10 18.23674 00 54 51.01 -04 57 53.3 19.6   704 – Lincoln Laboratory ETS, New Mexico MPS 117603
2004 10 18.24781 00 54 50.49 -04 57 55.2 19.7   704 – Lincoln Laboratory ETS, New Mexico MPS 117603
2004 10 19.30706 00 53 58.30 -05 01 13.9 19.1   704 – Lincoln Laboratory ETS, New Mexico MPS 117603
2004 10 19.31746 00 53 57.74 -05 01 14.8 19.9   704 – Lincoln Laboratory ETS, New Mexico MPS 117603
2004 10 19.33828 00 53 56.57 -05 01 18.6 19.3   704 – Lincoln Laboratory ETS, New Mexico MPS 117603
2004 10 19.34869 00 53 56.16 -05 01 19.9 19.2   704 – Lincoln Laboratory ETS, New Mexico MPS 117603
2005 12 25.33625 07 16 41.44 +22 16 03.8 21.0 V G96 – Mt. Lemmon Survey MPS 157461
2005 12 25.34282 07 16 41.05 +22 16 05.0 21.1 V G96 – Mt. Lemmon Survey MPS 157461
2005 12 25.34936 07 16 40.65 +22 16 06.7 21.4 V G96 – Mt. Lemmon Survey MPS 157461
2005 12 25.35588 07 16 40.29 +22 16 07.6 21.0 V G96 – Mt. Lemmon Survey MPS 157461
2005 12 29.20853 07 12 55.70 +22 28 50.6   691 – Steward Observatory, Kitt Peak-Spacewatch MPS 157461
2005 12 29.22595 07 12 54.64 +22 28 54.2   691 – Steward Observatory, Kitt Peak-Spacewatch MPS 157461
2005 12 29.24331 07 12 53.57 +22 28 57.5   691 – Steward Observatory, Kitt Peak-Spacewatch MPS 157461
2008 09 06.31434 00 16 10.02 -09 04 05.5 18.8 V 703 – Catalina Sky Survey MPS 256323
2008 09 06.32076 00 16 09.69 -09 04 08.2 18.9 V 703 – Catalina Sky Survey MPS 256323
